Preview of NWS' New Version of Forecast
This preview is not operational and should not be used for support decisions.

Regional Weather Roundup (RWR)

Issued by National Weather Service (NWS)

                            
000
ASUS43 KDTX 191201
RWRMI 
MICHIGAN HOURLY REGIONAL WEATHER ROUNDUP
NATIONAL WEATHER SERVICE DETROIT/PONTIAC MI
700 AM EST TUE FEB 19 2019

NOTE: "FAIR" INDICATES FEW OR NO CLOUDS BELOW 12,000 FEET WITH NO
SIGNIFICANT WEATHER AND/OR OBSTRUCTION TO VISIBILITY.

MIZ047>049-052>055-059>063-066>070-074>076-081>083-191300-
SOUTHEAST LOWER MICHIGAN
  
CITY           SKY/WX    TMP DP  RH WIND       PRES   REMARKS
ADRIAN         FAIR      11   6  81 N3        30.62R                  
6HR MIN TEMP:  11; 6HR MAX TEMP:  15;                                

ALMA           FAIR      -5 -10  78 CALM      30.61R                  
6HR MIN TEMP:  -8; 6HR MAX TEMP:   4;                                

ANN ARBOR      FAIR       8   4  83 CALM      30.60R                  
BAD AXE        FAIR       1  -2  86 CALM      30.58S                  
6HR MIN TEMP:   1; 6HR MAX TEMP:   8;                                

CARO           FAIR      -4  -7  87 CALM      30.61R                  
DETROIT CITY   FAIR      12   7  80 CALM      30.62R                  
6HR MIN TEMP:   9; 6HR MAX TEMP:  16;                                

DETROIT        CLOUDY    11   5  77 NW5       30.63R WCI   3          
6HR MIN TEMP:   9; 6HR MAX TEMP:  15;                                

FLINT          FAIR       0  -3  87 CALM      30.60S                  
6HR MIN TEMP:  -4; 6HR MAX TEMP:   9;                                

GROSSE ILE     FAIR      12  10  89 NW5       30.61R WCI   4          
6HR MIN TEMP:  12; 6HR MAX TEMP:  18;                                

HILLSDALE      FAIR       7   3  82 CALM      30.57R                  
6HR MIN TEMP:   5; 6HR MAX TEMP:  11;                                

HOWELL         FAIR       3   0  86 CALM      30.60R                  
6HR MIN TEMP:   1; 6HR MAX TEMP:  10;                                


CITY           SKY/WX    TMP DP  RH WIND       PRES   REMARKS
JACKSON        FAIR       2  -1  88 CALM      30.60R                  
6HR MIN TEMP:   2; 6HR MAX TEMP:   7;                                

LAMBERTVILLE   FAIR      11   9  89 CALM      30.62R                  
6HR MIN TEMP:  11; 6HR MAX TEMP:  13;                                

LANSING        FAIR       3   0  87 CALM      30.61R                  
6HR MIN TEMP:   0; 6HR MAX TEMP:  12;                                

LAPEER         FAIR      -7 -13  74 CALM      30.59S                  
6HR MIN TEMP:  -7; 6HR MAX TEMP:  -1;                                

MASON          FAIR      -1  -5  85 CALM      30.60R                  
6HR MIN TEMP:  -1; 6HR MAX TEMP:   9;                                

MONROE         FAIR      14  14  97 CALM      30.62R                  
6HR MIN TEMP:  14; 6HR MAX TEMP:  17;                                

MT. CLEMENS    FAIR       3   1  92 CALM      30.60R                  
6HR MIN TEMP:   0; 6HR MAX TEMP:   5;                                

PONTIAC        MOCLDY     6   1  80 CALM      30.57R                  
6HR MIN TEMP:   2; 6HR MAX TEMP:   8;                                

PORT HOPE        N/A      8   4  83 W5        30.58R WCI   0          
6HR MIN TEMP:   8; 6HR MAX TEMP:  18;                                

PORT HURON     FAIR      -6 -11  77 CALM      30.60S                  
TRI CITIES     FAIR       5   1  83 SW3       30.61S                  
6HR MIN TEMP:   4; 6HR MAX TEMP:  11;                                

MIDLAND        FAIR      -3  -8  80 CALM      30.61S                  
6HR MIN TEMP:  -4; 6HR MAX TEMP:   5;                                

TROY           FAIR      11   4  75 CALM      30.62R                  
SAGINAW HB     FAIR       1  -4  78 CALM      30.61F                  
$$
MIZ043>046-050>051-056>058-064>065-071>073-077>080-191300-
SOUTHWEST LOWER MICHIGAN
  
CITY           SKY/WX    TMP DP  RH WIND       PRES   REMARKS
BATTLE CREEK   FAIR       8   3  80 CALM      30.60R                  
6HR MIN TEMP:   5; 6HR MAX TEMP:  15;                                

BENTON HARBOR  CLOUDY    22  13  68 SE7       30.61R WCI  13          
6HR MIN TEMP:  22; 6HR MAX TEMP:  24;                                

BIG RAPIDS     FAIR      -3  -7  85 CALM      30.57R                  
6HR MIN TEMP:  -4; 6HR MAX TEMP:   2;                                

COLDWATER      FAIR      11   8  85 CALM      30.60R                  
6HR MIN TEMP:   9; 6HR MAX TEMP:  13;                                

FREMONT        FAIR       3  -1  83 CALM      30.58S                  
6HR MIN TEMP:   0; 6HR MAX TEMP:   5;                                

HOLLAND        FAIR       8   3  80 S5        30.61R WCI   0          
6HR MIN TEMP:   6; 6HR MAX TEMP:  15;                                

GRAND RAPIDS   MOCLDY     4  -1  80 SE3       30.60R                  
6HR MIN TEMP:   3; 6HR MAX TEMP:  14;                                

IONIA          FAIR       1  -3  83 S3        30.60R                  
6HR MIN TEMP:  -1; 6HR MAX TEMP:  11;                                

KALAMAZOO      MOCLDY    10   5  80 CALM      30.61R                  
6HR MIN TEMP:  10; 6HR MAX TEMP:  17;                                

LUDINGTON      CLOUDY    13   7  76 CALM      30.58R                  
6HR MIN TEMP:   6; 6HR MAX TEMP:  14;                                

MARSHALL       FAIR       2   0  91 CALM      30.60R                  
6HR MIN TEMP:   0; 6HR MAX TEMP:   6;                                

MOUNT PLEASANT FAIR      -1  -7  76 CALM      30.59S                  
6HR MIN TEMP:  -3; 6HR MAX TEMP:   5;                                

MUSKEGON       FAIR       7   1  76 SE5       30.61R WCI  -2          
6HR MIN TEMP:   5; 6HR MAX TEMP:  14;                                

SOUTH HAVEN    CLOUDY    19  12  72 SE3       30.61R                  
$$
MIZ016>042-191300-
NORTHERN LOWER MICHIGAN
  
CITY           SKY/WX    TMP DP  RH WIND       PRES   REMARKS
ALPENA         FAIR     -13 -17  82 CALM      30.59R                  
6HR MIN TEMP: -13; 6HR MAX TEMP:   0;                                

BEAVER ISLAND  FAIR      -6 -11  82 CALM      30.56S                  
6HR MIN TEMP:  -7; 6HR MAX TEMP:   0;                                

BELLAIRE       FAIR      -7 -12  78 CALM      30.59S                  
6HR MIN TEMP:  -7; 6HR MAX TEMP:   3;                                

CADILLAC       FAIR      -9 -15  73 CALM      30.51S                  
CHARLEVOIX     CLOUDY    -1  -5  84 E3        30.60S                  
6HR MIN TEMP:  -3; 6HR MAX TEMP:  14;                                

FRANKFORT      FAIR      12   7  80 CALM      30.56S                  
GAYLORD        FAIR      -8 -13  78 SW3       30.52R                  
6HR MIN TEMP:  -9; 6HR MAX TEMP:   3;                                

GRAYLING       FAIR     -15 -18  84 CALM      30.53F HAZE             
HARBOR SPRINGS FAIR      -4  -8  82 CALM      30.56S                  
HOUGHTON LAKE  FAIR      -9 -15  75 CALM      30.54F                  
6HR MIN TEMP: -10; 6HR MAX TEMP:  -4;                                

MANISTEE       FLURRIES   8   4  83 E5        30.57S WCI   0          
OSCODA         FAIR      -8 -13  77 CALM      30.60S                  
6HR MIN TEMP: -10; 6HR MAX TEMP:  -3;                                

PELLSTON       FAIR     -14 -19  79 CALM      30.57S                  
6HR MIN TEMP: -15; 6HR MAX TEMP:  -2;                                

ROGERS CITY    FAIR       3  -1  83 SW7       30.58S WCI  -9          
TRAVERSE CITY  FLURRIES   8   3  80 SE3       30.55F                  
6HR MIN TEMP:   3; 6HR MAX TEMP:   8; 6HR PCP: TRACE;                

$$
MIZ007>008-015-191300-
EASTERN UPPER MICHIGAN
  
CITY           SKY/WX    TMP DP  RH WIND       PRES   REMARKS
KINROSS        CLOUDY     4   1  88 SW3       30.54R                  
6HR MIN TEMP:   3; 6HR MAX TEMP:   8; 6HR PCP: TRACE;                

MACKINAC ISLAN FAIR       2  -1  85 SW7       30.56R WCI -10          
6HR MIN TEMP:   2; 6HR MAX TEMP:  12;                                

NEWBERRY       FAIR       2  -2  84 MISG      30.52S                  
6HR MIN TEMP:   1; 6HR MAX TEMP:  10;                                

S. S. MARIE    CLOUDY     2  -2  83 CALM      30.53F                  
6HR MIN TEMP:   0; 6HR MAX TEMP:  10;                                

MUNISING         N/A     -6 -10  83 S8        30.54S WCI -21          
6HR MIN TEMP:  -7; 6HR MAX TEMP:   1;                                

$$
MIZ004>006-011>014-085-191300-
CENTRAL UPPER MICHIGAN
  
CITY           SKY/WX    TMP DP  RH WIND       PRES   REMARKS
MANISTIQUE     FAIR      -9 -16  70 CALM      30.54S                  
6HR MIN TEMP:  -9; 6HR MAX TEMP:   8;                                

ESCANABA       FAIR     -15 -20  78 CALM      30.56S                  
6HR MIN TEMP: -15; 6HR MAX TEMP: -11;                                

MENOMINEE      FAIR     -10 -14  82 CALM      30.58S                  
6HR MIN TEMP: -10; 6HR MAX TEMP:  -2;                                

SAWYER-GWINN   CLEAR    -13 -18  77 CALM      30.48R                  
$$
MIZ001>003-009>011-084-191300-
WESTERN UPPER MICHIGAN
  
CITY           SKY/WX    TMP DP  RH WIND       PRES   REMARKS
IRON MOUNTAIN  FAIR     -14 -20  74 CALM      30.50R                  
6HR MIN TEMP: -16; 6HR MAX TEMP:  -6;                                

HOUGHTON       FAIR      -9 -15  75 CALM      30.45S                  
6HR MIN TEMP: -12; 6HR MAX TEMP:   2;                                

COPPER HARBOR    N/A      2  -4  76 SW6       30.49F WCI  -9          
6HR MIN TEMP:   1; 6HR MAX TEMP:   6;                                

IRONWOOD       FAIR     -16 -21  78 CALM      30.47S                  
6HR MIN TEMP: -16; 6HR MAX TEMP: -11;                                

$$

ABBREVIATIONS USED IN REMARKS
   TC - TEMPERATURE IN CELSIUS
  WCI - WIND CHILL INDEX
   HX - HEAT INDEX
  VSB - VISIBILITY